#�ϑ�����,���ϕ���,���ϕ���,�ő啗��,�ő啗����������,�ő�u�ԕ���,�ő�u�ԕ�����������
#(�N����),(m/s)   ,(16����),(m/s)   ,(16����)        ,(m/s)       ,(16����)            
2016/2/17 0:01,0.2,3,0.2,3,0.5,5
2016/2/17 0:02,0.2,3,0.2,3,0.3,5
2016/2/17 0:03,0.1,4,0.2,3,0.3,5
2016/2/17 0:04,0.1,4,0.1,3,0.4,5
2016/2/17 0:05,0.1,4,0.1,3,0.1,5
2016/2/17 0:06,0.1,5,0.1,3,0,5
2016/2/17 0:07,0.1,5,0.1,3,0,2
2016/2/17 0:08,0.1,4,0.1,3,0,2
2016/2/17 0:09,0.1,4,0.1,3,0,2
2016/2/17 0:10,0,4,0.1,3,0,2
2016/2/17 0:11,0,4,0,3,0,2
2016/2/17 0:12,0,3,0,3,0,2
2016/2/17 0:13,0,3,0,4,0,2
2016/2/17 0:14,0,3,0,4,0,2
2016/2/17 0:15,0,2,0,4,0,2
2016/2/17 0:16,0,2,0,5,0.8,2
2016/2/17 0:17,0.1,2,0.1,5,0.8,2
2016/2/17 0:18,0.1,2,0.1,4,1,2
2016/2/17 0:19,0.2,2,0.2,2,1.3,2
2016/2/17 0:20,0.3,2,0.3,2,1.1,2
2016/2/17 0:21,0.4,2,0.4,2,1.1,2
2016/2/17 0:22,0.4,2,0.4,2,0.1,2
2016/2/17 0:23,0.4,2,0.4,2,0.3,2
2016/2/17 0:24,0.4,2,0.4,2,0,2
2016/2/17 0:25,0.4,2,0.4,2,0.1,2
2016/2/17 0:26,0.4,2,0.4,2,0.3,2
2016/2/17 0:27,0.3,2,0.4,2,0.4,2
2016/2/17 0:28,0.3,2,0.3,2,0.3,2
2016/2/17 0:29,0.2,2,0.3,2,0.1,2
2016/2/17 0:30,0.1,2,0.2,2,0.1,2
2016/2/17 0:31,0,2,0.1,2,0,2
2016/2/17 0:32,0,2,0,2,0.1,2
2016/2/17 0:33,0,2,0,2,0.1,2
2016/2/17 0:34,0,2,0,2,0.1,2
2016/2/17 0:35,0,2,0,2,0.1,2
2016/2/17 0:36,0,2,0,2,0.9,2
2016/2/17 0:37,0.1,2,0.1,2,1,2
2016/2/17 0:38,0.2,2,0.2,2,1,2
2016/2/17 0:39,0.2,2,0.2,2,0.6,2
2016/2/17 0:40,0.3,2,0.3,2,0.4,2
2016/2/17 0:41,0.3,2,0.3,2,0,2
2016/2/17 0:42,0.3,2,0.3,2,0,2
2016/2/17 0:43,0.3,2,0.3,2,0.4,2
2016/2/17 0:44,0.3,2,0.3,2,0.1,2
2016/2/17 0:45,0.3,2,0.3,2,0.1,2
2016/2/17 0:46,0.2,2,0.3,2,0.1,2
2016/2/17 0:47,0.2,2,0.2,2,0.3,2
2016/2/17 0:48,0.1,2,0.1,2,0.3,2
2016/2/17 0:49,0,2,0.1,2,0.4,2
2016/2/17 0:50,0,2,0,2,0.1,2
2016/2/17 0:51,0,2,0,2,0.1,2
2016/2/17 0:52,0,2,0,2,0.1,2
2016/2/17 0:53,0,2,0,2,0,2
2016/2/17 0:54,0,2,0,2,0.1,2
2016/2/17 0:55,0,2,0,2,0.1,2
2016/2/17 0:56,0,2,0,2,0.1,2
2016/2/17 0:57,0,2,0,2,0,2
2016/2/17 0:58,0,2,0,2,0,2
2016/2/17 0:59,0,2,0,2,0,2
2016/2/17 1:00,0,2,0,2,0.4,2
2016/2/17 1:01,0,2,0,2,0.3,2
2016/2/17 1:02,0,2,0,2,0.1,2
2016/2/17 1:03,0,2,0,2,0.1,2
2016/2/17 1:04,0,2,0,2,0,2
2016/2/17 1:05,0,2,0,2,0,2
2016/2/17 1:06,0,2,0,2,0,2
2016/2/17 1:07,0,2,0,2,0,2
2016/2/17 1:08,0,2,0,2,0.1,2
2016/2/17 1:09,0,2,0,2,0,2
2016/2/17 1:10,0,2,0,2,0,2
2016/2/17 1:11,0,2,0,2,0,2
2016/2/17 1:12,0,2,0,2,0.1,2
2016/2/17 1:13,0,2,0,2,0,2
2016/2/17 1:14,0,2,0,2,0.1,2
2016/2/17 1:15,0,2,0,2,0,2
2016/2/17 1:16,0,2,0,2,0,2
2016/2/17 1:17,0,2,0,2,0.1,2
2016/2/17 1:18,0,2,0,2,0.8,8
2016/2/17 1:19,0.1,3,0.1,3,0.6,8
2016/2/17 1:20,0.1,3,0.1,3,0.5,8
2016/2/17 1:21,0.1,4,0.1,3,0.3,8
2016/2/17 1:22,0.1,5,0.1,3,0.6,8
2016/2/17 1:23,0.2,6,0.2,6,0.4,8
2016/2/17 1:24,0.2,7,0.2,6,0.6,6
2016/2/17 1:25,0.2,7,0.2,6,0.8,7
2016/2/17 1:26,0.3,7,0.3,7,0.8,6
2016/2/17 1:27,0.3,8,0.3,7,0.4,8
2016/2/17 1:28,0.3,7,0.3,7,0.1,6
2016/2/17 1:29,0.2,7,0.3,7,0.1,7
2016/2/17 1:30,0.2,7,0.2,7,0,12
2016/2/17 1:31,0.2,7,0.2,7,0.6,7
2016/2/17 1:32,0.2,7,0.2,7,0.8,8
2016/2/17 1:33,0.2,7,0.2,7,0.6,7
2016/2/17 1:34,0.2,7,0.2,7,0.4,9
2016/2/17 1:35,0.2,8,0.2,7,0.8,9
2016/2/17 1:36,0.1,8,0.2,7,0.5,8
2016/2/17 1:37,0.1,7,0.1,8,0.1,13
2016/2/17 1:38,0.1,7,0.1,7,0.3,6
2016/2/17 1:39,0.1,7,0.1,7,0.1,4
2016/2/17 1:40,0.1,7,0.1,7,0.1,3
2016/2/17 1:41,0.1,6,0.1,7,0.1,4
2016/2/17 1:42,0.1,5,0.1,7,0,16
2016/2/17 1:43,0.1,5,0.1,7,0,16
2016/2/17 1:44,0.1,3,0.1,7,0,16
2016/2/17 1:45,0,2,0.1,8,0,16
2016/2/17 1:46,0,2,0,8,0,16
2016/2/17 1:47,0,1,0,7,0,16
2016/2/17 1:48,0,1,0,7,0,16
2016/2/17 1:49,0,1,0,7,0,16
2016/2/17 1:50,0,16,0,7,0.4,16
2016/2/17 1:51,0,16,0,6,0,16
2016/2/17 1:52,0,16,0,5,0,16
2016/2/17 1:53,0,16,0,4,0,16
2016/2/17 1:54,0,16,0,3,0.1,3
2016/2/17 1:55,0,16,0,2,0,3
2016/2/17 1:56,0,1,0,2,0,4
2016/2/17 1:57,0,1,0,1,0,3
2016/2/17 1:58,0,2,0,1,0.3,3
2016/2/17 1:59,0.1,2,0.1,2,0.6,3
2016/2/17 2:00,0.1,2,0.1,2,0.5,3
2016/2/17 2:01,0.1,3,0.1,2,0.1,3
2016/2/17 2:02,0.1,3,0.1,2,0.5,7
2016/2/17 2:03,0.1,4,0.1,2,0.3,7
2016/2/17 2:04,0.1,4,0.1,2,0.6,4
2016/2/17 2:05,0.1,4,0.1,2,0.5,5
2016/2/17 2:06,0.1,4,0.1,2,0.1,4
2016/2/17 2:07,0.1,4,0.1,2,0.4,5
2016/2/17 2:08,0.2,4,0.2,4,0.4,5
2016/2/17 2:09,0.1,4,0.2,4,0.4,2
2016/2/17 2:10,0.2,4,0.2,4,0.8,3
2016/2/17 2:11,0.2,4,0.2,4,0.8,3
2016/2/17 2:12,0.3,4,0.3,4,0.9,3
2016/2/17 2:13,0.4,4,0.4,4,0.8,4
2016/2/17 2:14,0.4,4,0.4,4,0.5,4
2016/2/17 2:15,0.3,4,0.4,4,0.1,4
2016/2/17 2:16,0.3,4,0.3,4,0.1,2
2016/2/17 2:17,0.3,3,0.3,4,0.6,4
2016/2/17 2:18,0.4,3,0.4,4,0.6,4
2016/2/17 2:19,0.3,4,0.4,4,0.4,5
2016/2/17 2:20,0.3,4,0.3,4,0.5,6
2016/2/17 2:21,0.3,4,0.3,4,0.8,9
2016/2/17 2:22,0.2,5,0.3,4,0.8,8
2016/2/17 2:23,0.2,5,0.2,4,0.9,11
2016/2/17 2:24,0.3,6,0.3,4,0.9,9
2016/2/17 2:25,0.3,6,0.3,3,0.9,8
2016/2/17 2:26,0.4,7,0.4,3,1.5,7
2016/2/17 2:27,0.5,7,0.5,7,1.6,8
2016/2/17 2:28,0.5,8,0.5,7,1,9
2016/2/17 2:29,0.5,8,0.5,7,0.9,8
2016/2/17 2:30,0.5,8,0.5,7,0.8,14
2016/2/17 2:31,0.5,8,0.5,7,0.9,7
2016/2/17 2:32,0.5,8,0.5,7,0.8,7
2016/2/17 2:33,0.5,8,0.5,7,0.8,8
2016/2/17 2:34,0.5,9,0.5,7,0.6,8
2016/2/17 2:35,0.5,9,0.5,7,0.9,10
2016/2/17 2:36,0.4,9,0.5,7,0.6,8
2016/2/17 2:37,0.3,9,0.4,7,0,7
2016/2/17 2:38,0.3,8,0.3,8,0,6
2016/2/17 2:39,0.2,9,0.3,8,0,16
2016/2/17 2:40,0.2,8,0.2,8,0,16
2016/2/17 2:41,0.2,9,0.2,8,0,16
2016/2/17 2:42,0.1,15,0.2,8,0,16
2016/2/17 2:43,0.1,16,0.1,8,0,16
2016/2/17 2:44,0.1,16,0.1,9,0,16
2016/2/17 2:45,0,1,0.1,9,0.1,3
2016/2/17 2:46,0,1,0,9,0,3
2016/2/17 2:47,0,1,0,9,0,3
2016/2/17 2:48,0,1,0,8,0,3
2016/2/17 2:49,0,1,0,9,0,3
2016/2/17 2:50,0,2,0,8,0,4
2016/2/17 2:51,0,2,0,9,0,4
2016/2/17 2:52,0,3,0,15,0,6
2016/2/17 2:53,0,3,0,16,0,6
2016/2/17 2:54,0,4,0,16,0,5
2016/2/17 2:55,0,4,0,1,0,4
2016/2/17 2:56,0,4,0,1,0,5
2016/2/17 2:57,0,4,0,1,0,3
2016/2/17 2:58,0,4,0,1,0,2
2016/2/17 2:59,0,4,0,1,0,2
2016/2/17 3:00,0,4,0,2,0,2
2016/2/17 3:01,0,3,0,2,0,16
2016/2/17 3:02,0,3,0,3,0,1
2016/2/17 3:03,0,3,0,3,0,3
2016/2/17 3:04,0,3,0,4,0,3
2016/2/17 3:05,0,3,0,4,0,4
2016/2/17 3:06,0,3,0,4,0,3
2016/2/17 3:07,0,3,0,4,0,3
2016/2/17 3:08,0,3,0,4,0,3
2016/2/17 3:09,0,3,0,4,0,3
2016/2/17 3:10,0,3,0,4,0,4
2016/2/17 3:11,0,3,0,3,0,3
2016/2/17 3:12,0,3,0,3,0,3
2016/2/17 3:13,0,3,0,3,0,3
2016/2/17 3:14,0,3,0,3,0,4
2016/2/17 3:15,0,4,0,3,0,4
2016/2/17 3:16,0,4,0,3,0,4
2016/2/17 3:17,0,4,0,3,0,4
2016/2/17 3:18,0,3,0,3,0,1
2016/2/17 3:19,0,3,0,3,0,15
2016/2/17 3:20,0,3,0,3,0,14
2016/2/17 3:21,0,3,0,3,0,2
2016/2/17 3:22,0,2,0,3,0,5
2016/2/17 3:23,0,1,0,3,0,14
2016/2/17 3:24,0,16,0,3,0,13
2016/2/17 3:25,0,15,0,4,0,13
2016/2/17 3:26,0,15,0,4,0,15
2016/2/17 3:27,0,15,0,4,0,15
2016/2/17 3:28,0,14,0,3,0,16
2016/2/17 3:29,0,14,0,3,0,15
2016/2/17 3:30,0,14,0,3,0,9
2016/2/17 3:31,0,14,0,3,0,15
2016/2/17 3:32,0,14,0,2,0,14
2016/2/17 3:33,0,15,0,1,0,16
2016/2/17 3:34,0,15,0,16,0,14
2016/2/17 3:35,0,15,0,15,0,4
2016/2/17 3:36,0,15,0,15,0,8
2016/2/17 3:37,0,14,0,14,0,9
2016/2/17 3:38,0,12,0,14,0,8
2016/2/17 3:39,0,11,0,14,0,9
2016/2/17 3:40,0,11,0,14,0,9
2016/2/17 3:41,0,10,0,14,0,9
2016/2/17 3:42,0,9,0,14,0,9
2016/2/17 3:43,0,9,0,15,0,11
2016/2/17 3:44,0,9,0,15,0,10
2016/2/17 3:45,0,9,0,15,0,9
2016/2/17 3:46,0,9,0,15,0,12
2016/2/17 3:47,0,10,0,14,0,9
2016/2/17 3:48,0,10,0,12,0,14
2016/2/17 3:49,0,10,0,11,0,11
2016/2/17 3:50,0,11,0,11,0,13
2016/2/17 3:51,0,11,0,10,0,13
2016/2/17 3:52,0,11,0,9,0,9
2016/2/17 3:53,0,11,0,9,0,9
2016/2/17 3:54,0,11,0,9,0,9
2016/2/17 3:55,0,11,0,9,0,16
2016/2/17 3:56,0,11,0,9,0,13
2016/2/17 3:57,0,10,0,10,0,9
2016/2/17 3:58,0,10,0,10,0,8
2016/2/17 3:59,0,9,0,10,0,5
2016/2/17 4:00,0,9,0,11,0,8
2016/2/17 4:01,0,8,0,11,0,6
2016/2/17 4:02,0,8,0,11,0,9
2016/2/17 4:03,0,8,0,11,0,7
2016/2/17 4:04,0,8,0,11,0,10
2016/2/17 4:05,0,8,0,11,0,8
2016/2/17 4:06,0,8,0,11,0,7
2016/2/17 4:07,0,8,0,10,0,8
2016/2/17 4:08,0,8,0,10,0,9
2016/2/17 4:09,0,8,0,9,0,9
2016/2/17 4:10,0,8,0,9,0,8
2016/2/17 4:11,0,8,0,8,0,8
2016/2/17 4:12,0,8,0,8,0,12
2016/2/17 4:13,0,8,0,8,0,8
2016/2/17 4:14,0,8,0,8,0,8
2016/2/17 4:15,0,9,0,8,0,16
2016/2/17 4:16,0,8,0,8,0,9
2016/2/17 4:17,0,8,0,8,0,7
2016/2/17 4:18,0,8,0,8,0,14
2016/2/17 4:19,0,8,0,8,0,8
2016/2/17 4:20,0,9,0,8,0,5
2016/2/17 4:21,0,9,0,8,0,9
2016/2/17 4:22,0,8,0,8,0,6
2016/2/17 4:23,0,9,0,8,0,9
2016/2/17 4:24,0,9,0,8,0,12
2016/2/17 4:25,0,8,0,9,0,8
2016/2/17 4:26,0,9,0,8,0,8
2016/2/17 4:27,0,9,0,8,0,10
2016/2/17 4:28,0,9,0,8,0,13
2016/2/17 4:29,0,9,0,8,0,10
2016/2/17 4:30,0,9,0,9,0,10
2016/2/17 4:31,0,9,0,9,0,10
2016/2/17 4:32,0,10,0,9,0,10
2016/2/17 4:33,0,10,0,9,0,10
2016/2/17 4:34,0,10,0,9,0,10
2016/2/17 4:35,0,10,0,8,0,10
2016/2/17 4:36,0,10,0,9,0,11
2016/2/17 4:37,0,10,0,9,0,10
2016/2/17 4:38,0,10,0,9,0,9
2016/2/17 4:39,0,10,0,9,0,14
2016/2/17 4:40,0,10,0,9,0,9
2016/2/17 4:41,0,10,0,9,0,11
2016/2/17 4:42,0,10,0,10,0,10
2016/2/17 4:43,0,10,0,10,0,11
2016/2/17 4:44,0,10,0,10,0,10
2016/2/17 4:45,0,10,0,10,0,9
2016/2/17 4:46,0,10,0,10,0,13
2016/2/17 4:47,0,11,0,10,0,13
2016/2/17 4:48,0,11,0,10,0,10
2016/2/17 4:49,0,11,0,10,0,11
2016/2/17 4:50,0,10,0,10,0,9
2016/2/17 4:51,0,10,0,10,0,11
2016/2/17 4:52,0,10,0,10,0,9
2016/2/17 4:53,0,10,0,10,0,12
2016/2/17 4:54,0,10,0,10,0,12
2016/2/17 4:55,0,11,0,10,0,10
2016/2/17 4:56,0,10,0,11,0,10
2016/2/17 4:57,0,11,0,11,0,11
2016/2/17 4:58,0,11,0,11,0,12
2016/2/17 4:59,0,11,0,11,0,12
2016/2/17 5:00,0,11,0,10,0,10
2016/2/17 5:01,0,11,0,11,0,13
2016/2/17 5:02,0,11,0,11,0,12
2016/2/17 5:03,0,11,0,10,0,5
2016/2/17 5:04,0,11,0,10,0,7
2016/2/17 5:05,0,12,0,11,0,11
2016/2/17 5:06,0,12,0,10,0,15
2016/2/17 5:07,0,13,0,11,0,14
2016/2/17 5:08,0,14,0,11,0,1
2016/2/17 5:09,0,16,0,11,0,5
2016/2/17 5:10,0,1,0,11,0,3
2016/2/17 5:11,0,6,0,11,0,10
2016/2/17 5:12,0,7,0,11,0,10
2016/2/17 5:13,0,10,0,11,0,9
2016/2/17 5:14,0,11,0,11,0,10
2016/2/17 5:15,0,10,0,12,0,9
2016/2/17 5:16,0,10,0,12,0,10
2016/2/17 5:17,0,10,0,13,0,14
2016/2/17 5:18,0,11,0,14,0,1
2016/2/17 5:19,0,11,0,16,0,11
2016/2/17 5:20,0,12,0,1,0,16
2016/2/17 5:21,0,13,0,6,0,16
2016/2/17 5:22,0,13,0,7,0,1
2016/2/17 5:23,0,14,0,10,0,16
2016/2/17 5:24,0,15,0,11,0,15
2016/2/17 5:25,0,15,0,10,0,16
2016/2/17 5:26,0,15,0,10,0,2
2016/2/17 5:27,0,15,0,10,0,11
2016/2/17 5:28,0,16,0,11,0,4
2016/2/17 5:29,0,16,0,11,0,9
2016/2/17 5:30,0,16,0,12,0,16
2016/2/17 5:31,0,15,0,13,0,8
2016/2/17 5:32,0,11,0,14,0,10
2016/2/17 5:33,0,9,0,14,0,9
2016/2/17 5:34,0,9,0,15,0,11
2016/2/17 5:35,0,9,0,15,0,10
2016/2/17 5:36,0,9,0,15,0,11
2016/2/17 5:37,0,9,0,15,0,8
2016/2/17 5:38,0,9,0,16,0,12
2016/2/17 5:39,0,9,0,16,0,9
2016/2/17 5:40,0,10,0,16,0,10
2016/2/17 5:41,0,10,0,14,0,11
2016/2/17 5:42,0,10,0,11,0,9
2016/2/17 5:43,0,10,0,9,0,15
2016/2/17 5:44,0,10,0,9,0,12
2016/2/17 5:45,0,10,0,9,0,8
2016/2/17 5:46,0,10,0,9,0,7
2016/2/17 5:47,0,10,0,9,0,8
2016/2/17 5:48,0,10,0,9,0,11
2016/2/17 5:49,0,10,0,9,0,10
2016/2/17 5:50,0,10,0,10,0,13
2016/2/17 5:51,0,10,0,10,0,11
2016/2/17 5:52,0,10,0,10,0,8
2016/2/17 5:53,0,10,0,10,0,12
2016/2/17 5:54,0,10,0,10,0,10
2016/2/17 5:55,0,10,0,10,0,9
2016/2/17 5:56,0,10,0,10,0,12
2016/2/17 5:57,0,11,0,10,0,11
2016/2/17 5:58,0,11,0,10,0,12
2016/2/17 5:59,0,11,0,10,0,13
2016/2/17 6:00,0,11,0,10,0,11
2016/2/17 6:01,0,11,0,10,0,10
2016/2/17 6:02,0,11,0,10,0,12
2016/2/17 6:03,0,11,0,10,0,12
2016/2/17 6:04,0,12,0,10,0,12
2016/2/17 6:05,0,12,0,10,0,8
2016/2/17 6:06,0,12,0,10,0,13
2016/2/17 6:07,0,12,0,11,0,2
2016/2/17 6:08,0,12,0,11,0,14
2016/2/17 6:09,0,13,0,11,0,15
2016/2/17 6:10,0,13,0,11,0,1
2016/2/17 6:11,0,14,0,11,0,16
2016/2/17 6:12,0,14,0,11,0,12
2016/2/17 6:13,0,13,0,12,0,10
2016/2/17 6:14,0,13,0,12,0,10
2016/2/17 6:15,0,13,0,12,0,12
2016/2/17 6:16,0,12,0,12,0,15
2016/2/17 6:17,0,12,0,12,0,10
2016/2/17 6:18,0,11,0,12,0,10
2016/2/17 6:19,0,11,0,13,0,10
2016/2/17 6:20,0,11,0,13,0,13
2016/2/17 6:21,0,10,0,14,0,10
2016/2/17 6:22,0,10,0,14,0,10
2016/2/17 6:23,0,10,0,13,0,10
2016/2/17 6:24,0,10,0,13,0,9
2016/2/17 6:25,0,10,0,13,0,10
2016/2/17 6:26,0.1,10,0.1,10,2.7,10
2016/2/17 6:27,0.2,10,0.2,10,2.4,10
2016/2/17 6:28,0.3,10,0.3,10,2.4,16
2016/2/17 6:29,0.4,10,0.4,10,2.5,13
2016/2/17 6:30,0.5,10,0.5,10,1.3,13
2016/2/17 6:31,0.5,11,0.5,10,2.6,10
2016/2/17 6:32,0.8,11,0.8,11,3.1,10
2016/2/17 6:33,1,11,1,11,3,11
2016/2/17 6:34,1.3,11,1.3,11,3.5,13
2016/2/17 6:35,1.5,11,1.5,11,2.7,9
2016/2/17 6:36,1.6,11,1.6,11,2.2,10
2016/2/17 6:37,1.5,11,1.6,11,1.5,9
2016/2/17 6:38,1.5,10,1.5,11,2.1,10
2016/2/17 6:39,1.6,10,1.6,11,2.5,10
2016/2/17 6:40,1.7,10,1.7,10,2.1,9
2016/2/17 6:41,1.9,10,1.9,10,3.2,11
2016/2/17 6:42,1.8,10,1.9,10,2.7,10
2016/2/17 6:43,1.7,10,1.8,10,2.5,9
2016/2/17 6:44,1.6,10,1.7,10,2.2,11
2016/2/17 6:45,1.6,10,1.6,10,1.8,11
2016/2/17 6:46,1.5,10,1.6,10,2.1,10
2016/2/17 6:47,1.5,10,1.5,10,2.2,10
2016/2/17 6:48,1.5,10,1.6,10,1.8,10
2016/2/17 6:49,1.3,10,1.5,10,0.3,10
2016/2/17 6:50,1.3,10,1.3,10,2.1,11
2016/2/17 6:51,1.2,10,1.3,10,2.1,11
2016/2/17 6:52,1,10,1.2,10,1.5,11
2016/2/17 6:53,0.9,10,1,10,0.4,11
2016/2/17 6:54,0.9,10,0.9,10,2.6,11
2016/2/17 6:55,0.9,11,0.9,10,2,11
2016/2/17 6:56,0.9,11,0.9,10,1.9,11
2016/2/17 6:57,0.9,11,0.9,10,2.1,11
2016/2/17 6:58,1,11,1,10,2.6,10
2016/2/17 6:59,1.2,11,1.2,10,2.1,10
2016/2/17 7:00,1.2,11,1.2,10,2,10
2016/2/17 7:01,1.2,11,1.2,10,2.4,11
2016/2/17 7:02,1.4,10,1.4,10,2.7,10
2016/2/17 7:03,1.6,10,1.6,10,3.3,10
2016/2/17 7:04,1.6,10,1.6,10,2.1,10
2016/2/17 7:05,1.6,10,1.6,10,2.6,11
2016/2/17 7:06,1.6,10,1.6,10,1.9,10
2016/2/17 7:07,1.6,11,1.6,10,1.9,12
2016/2/17 7:08,1.5,11,1.5,10,1.9,11
2016/2/17 7:09,1.5,11,1.5,10,1.9,10
2016/2/17 7:10,1.4,11,1.4,10,1.5,14
2016/2/17 7:11,1.2,11,1.4,10,0.5,10
2016/2/17 7:12,1,11,1.2,10,0.3,12
2016/2/17 7:13,0.9,11,1,10,1.9,10
2016/2/17 7:14,0.8,11,0.9,10,1.8,10
2016/2/17 7:15,0.8,11,0.8,10,2.5,9
2016/2/17 7:16,0.9,11,0.9,10,2.5,9
2016/2/17 7:17,0.9,11,0.9,11,2.2,10
2016/2/17 7:18,1,11,1,11,2.6,13
2016/2/17 7:19,1,11,1,11,2.2,11
2016/2/17 7:20,1,11,1.1,11,2,13
2016/2/17 7:21,1,11,1,11,0.3,12
2016/2/17 7:22,1,11,1,11,1.4,13
2016/2/17 7:23,1.1,11,1.1,11,2.2,14
2016/2/17 7:24,1.1,11,1.1,11,1.8,8
2016/2/17 7:25,1,11,1.1,11,1.5,10
2016/2/17 7:26,0.9,11,1,11,1.8,11
2016/2/17 7:27,0.8,11,0.9,11,1.6,12
2016/2/17 7:28,0.7,11,0.8,11,1.9,12
2016/2/17 7:29,0.6,12,0.7,11,1.1,10
2016/2/17 7:30,0.6,12,0.6,11,1.9,12
2016/2/17 7:31,0.7,11,0.7,11,2,11
2016/2/17 7:32,0.9,11,0.9,11,2,9
2016/2/17 7:33,0.9,11,0.9,11,2.9,11
2016/2/17 7:34,1,11,1,11,3,10
2016/2/17 7:35,1.2,11,1.2,11,3.5,10
2016/2/17 7:36,1.3,11,1.3,11,2.4,11
2016/2/17 7:37,1.4,11,1.4,11,2,10
2016/2/17 7:38,1.4,10,1.4,11,2,9
2016/2/17 7:39,1.6,10,1.6,10,1.8,10
2016/2/17 7:40,1.6,10,1.6,10,2.5,8
2016/2/17 7:41,1.5,10,1.6,10,2,11
2016/2/17 7:42,1.5,10,1.5,10,2.4,13
2016/2/17 7:43,1.5,10,1.5,10,2.7,10
2016/2/17 7:44,1.4,10,1.5,10,2.6,10
2016/2/17 7:45,1.2,10,1.4,10,0.6,11
2016/2/17 7:46,1.1,10,1.2,10,2.2,9
2016/2/17 7:47,1.1,10,1.1,10,2.2,10
2016/2/17 7:48,1.2,10,1.2,10,3.6,10
2016/2/17 7:49,1.3,10,1.3,10,3.2,9
2016/2/17 7:50,1.3,10,1.3,10,3.2,11
2016/2/17 7:51,1.5,10,1.5,10,3.9,11
2016/2/17 7:52,1.6,10,1.6,10,4.2,10
2016/2/17 7:53,1.7,10,1.7,10,4.2,10
2016/2/17 7:54,1.9,10,1.9,10,3.6,10
2016/2/17 7:55,2.1,10,2.1,10,3.5,9
2016/2/17 7:56,2.2,10,2.2,10,4.3,11
2016/2/17 7:57,2.4,10,2.4,10,4.7,9
2016/2/17 7:58,2.4,10,2.4,10,4.4,9
2016/2/17 7:59,2.4,10,2.4,10,4.2,9
2016/2/17 8:00,2.3,10,2.4,10,3.9,10
2016/2/17 8:01,2.7,10,2.7,10,7.6,9
2016/2/17 8:02,2.9,10,2.9,10,6.8,10
2016/2/17 8:03,2.8,10,2.9,10,5,9
2016/2/17 8:04,2.9,10,2.9,10,6.5,10
2016/2/17 8:05,3.2,10,3.2,10,8.2,9
2016/2/17 8:06,3.3,10,3.3,10,6,11
2016/2/17 8:07,3.6,10,3.6,10,9.5,13
2016/2/17 8:08,3.9,10,3.9,10,8.3,11
2016/2/17 8:09,4,10,4.1,10,8.1,10
2016/2/17 8:10,4.2,10,4.2,11,5.5,9
2016/2/17 8:11,4.1,10,4.2,11,9.8,9
2016/2/17 8:12,4,11,4.1,11,8.3,10
2016/2/17 8:13,4.2,11,4.2,11,8.5,10
2016/2/17 8:14,4.2,11,4.4,11,5.6,10
2016/2/17 8:15,4,11,4.2,11,7.2,10
2016/2/17 8:16,4.2,10,4.2,11,7.7,11
2016/2/17 8:17,4,10,4.2,11,6,12
2016/2/17 8:18,3.9,10,4,11,7.1,9
2016/2/17 8:19,3.9,10,3.9,11,7.2,10
2016/2/17 8:20,4.2,10,4.2,11,9.2,11
2016/2/17 8:21,4.3,11,4.3,11,8.6,10
2016/2/17 8:22,4.3,11,4.4,11,9,11
2016/2/17 8:23,4.4,11,4.4,11,7.6,10
2016/2/17 8:24,4.5,11,4.5,11,8.6,9
2016/2/17 8:25,4.5,11,4.7,11,6.8,12
2016/2/17 8:26,4.5,11,4.5,11,7.5,10
2016/2/17 8:27,4.6,11,4.6,11,8.6,9
2016/2/17 8:28,4.7,11,4.7,11,7.9,10
2016/2/17 8:29,4.6,11,4.7,11,6.1,12
2016/2/17 8:30,4.4,11,4.5,11,8.5,10
2016/2/17 8:31,4.3,11,4.4,11,8.2,12
2016/2/17 8:32,4.3,11,4.4,11,6.5,12
2016/2/17 8:33,4.4,11,4.4,11,8.1,11
2016/2/17 8:34,4.5,12,4.5,11,7.2,11
2016/2/17 8:35,4.6,12,4.6,11,8.9,14
2016/2/17 8:36,4.3,12,4.6,11,3.1,12
2016/2/17 8:37,4.1,12,4.2,11,6.5,14
2016/2/17 8:38,4,13,4.1,11,5.8,14
2016/2/17 8:39,3.9,13,4,12,5.2,14
2016/2/17 8:40,3.8,13,3.9,12,4.9,13
2016/2/17 8:41,3.7,13,3.8,12,5.6,12
2016/2/17 8:42,3.6,13,3.7,12,4.5,13
2016/2/17 8:43,3.4,13,3.6,12,6.5,9
2016/2/17 8:44,3.3,13,3.4,12,6.3,12
2016/2/17 8:45,3.2,13,3.3,12,5.7,12
2016/2/17 8:46,3.2,13,3.2,12,3,15
2016/2/17 8:47,3,12,3.2,12,2.7,11
2016/2/17 8:48,3.1,12,3.1,13,8.1,10
2016/2/17 8:49,3.2,12,3.2,13,7.5,9
2016/2/17 8:50,3.3,12,3.3,13,6.9,10
2016/2/17 8:51,3.4,11,3.4,13,8.2,11
2016/2/17 8:52,3.6,11,3.6,13,8.7,11
2016/2/17 8:53,3.6,11,3.6,11,6.8,10
2016/2/17 8:54,3.4,11,3.6,11,6,9
2016/2/17 8:55,3.6,11,3.6,11,7.8,9
2016/2/17 8:56,4.1,10,4.1,10,9.9,10
2016/2/17 8:57,4.4,10,4.4,10,7.6,10
2016/2/17 8:58,4.5,10,4.5,10,7.7,9
2016/2/17 8:59,4.5,10,4.5,10,9.7,10
2016/2/17 9:00,4.8,10,4.8,10,10.2,10
2016/2/17 9:01,4.7,10,4.8,10,6.9,10
2016/2/17 9:02,4.5,10,4.7,10,5.6,11
2016/2/17 9:03,4.5,10,4.5,10,7.6,11
2016/2/17 9:04,4.8,10,4.8,10,7.8,9
2016/2/17 9:05,4.9,10,4.9,10,10.1,10
2016/2/17 9:06,4.6,10,4.9,10,7.8,10
2016/2/17 9:07,4.4,10,4.6,10,4.7,11
2016/2/17 9:08,4.4,10,4.4,10,7.9,9
2016/2/17 9:09,4.4,10,4.4,10,8.1,11
2016/2/17 9:10,4.3,10,4.4,10,10,11
2016/2/17 9:11,4.4,10,4.4,10,8.9,10
2016/2/17 9:12,4.5,10,4.5,10,6.9,10
2016/2/17 9:13,4.5,10,4.6,10,7.7,9
2016/2/17 9:14,4.6,10,4.6,10,10,10
2016/2/17 9:15,4.5,10,4.7,10,8.7,11
2016/2/17 9:16,4.6,10,4.6,10,10.5,9
2016/2/17 9:17,4.9,10,4.9,10,7.2,13
2016/2/17 9:18,4.7,10,4.9,10,6.7,11
2016/2/17 9:19,4.5,10,4.8,10,7.1,12
2016/2/17 9:20,4.2,10,4.5,10,4.2,13
2016/2/17 9:21,4,10,4.2,10,6.2,8
2016/2/17 9:22,4,10,4,10,8.9,9
2016/2/17 9:23,4.1,10,4.1,10,8.7,10
2016/2/17 9:24,4.2,10,4.3,10,12.1,10
2016/2/17 9:25,4.2,11,4.3,10,9.8,10
2016/2/17 9:26,4.1,11,4.2,10,6.7,12
2016/2/17 9:27,3.9,10,4.1,10,6.3,9
2016/2/17 9:28,4,10,4,10,7.9,10
2016/2/17 9:29,4.2,10,4.2,10,9.2,9
2016/2/17 9:30,4.4,10,4.4,10,6.3,9
2016/2/17 9:31,4.6,10,4.6,10,6.9,9
2016/2/17 9:32,4.7,10,4.7,10,7.6,10
2016/2/17 9:33,4.7,10,4.8,10,8.4,11
2016/2/17 9:34,4.4,10,4.7,10,6.4,8
2016/2/17 9:35,4.3,10,4.4,10,7.5,12
2016/2/17 9:36,4.3,10,4.3,10,5.2,9
2016/2/17 9:37,4.4,10,4.4,10,7.9,10
2016/2/17 9:38,4.4,10,4.5,10,7.1,11
2016/2/17 9:39,4.1,10,4.3,10,4.8,10
2016/2/17 9:40,4.1,10,4.1,10,5.7,8
2016/2/17 9:41,4,10,4.1,10,6,10
2016/2/17 9:42,3.6,11,3.9,10,4.3,11
2016/2/17 9:43,3.3,11,3.6,10,3.5,10
2016/2/17 9:44,3.2,11,3.3,10,5.6,12
2016/2/17 9:45,3.3,11,3.3,10,5.8,12
2016/2/17 9:46,3.3,11,3.3,10,6.2,10
2016/2/17 9:47,3.2,11,3.4,10,5.7,9
2016/2/17 9:48,3,11,3.2,10,6.1,9
2016/2/17 9:49,2.9,11,3,10,4.1,9
2016/2/17 9:50,2.9,11,3,10,6,11
2016/2/17 9:51,2.9,11,2.9,10,6.4,14
2016/2/17 9:52,3.1,11,3.1,11,7.2,12
2016/2/17 9:53,3.5,12,3.5,12,7.4,13
2016/2/17 9:54,3.6,12,3.6,12,5.8,13
2016/2/17 9:55,3.5,12,3.6,12,5,12
2016/2/17 9:56,3.6,11,3.6,12,6.8,11
2016/2/17 9:57,3.7,11,3.7,11,6.2,9
2016/2/17 9:58,3.8,11,3.8,11,5.2,10
2016/2/17 9:59,3.9,12,3.9,11,6.4,10
2016/2/17 10:00,3.9,12,3.9,11,5.4,13
2016/2/17 10:01,3.9,12,3.9,11,6.1,13
2016/2/17 10:02,3.7,11,3.9,11,4.7,12
2016/2/17 10:03,3.5,11,3.6,11,6.8,12
2016/2/17 10:04,3.3,11,3.5,11,3.9,11
2016/2/17 10:05,3.3,11,3.3,11,5.4,12
2016/2/17 10:06,3.3,12,3.3,11,4.9,13
2016/2/17 10:07,3.1,12,3.3,11,4.5,10
2016/2/17 10:08,3,12,3.1,11,4.2,11
2016/2/17 10:09,2.9,12,3,12,4.1,12
2016/2/17 10:10,2.8,12,2.9,12,2.7,10
2016/2/17 10:11,2.6,12,2.8,11,3.1,10
2016/2/17 10:12,2.6,12,2.6,11,4.5,10
2016/2/17 10:13,2.6,12,2.6,11,7.2,9
2016/2/17 10:14,2.8,11,2.8,11,6.4,10
2016/2/17 10:15,2.7,11,2.8,11,5.2,10
2016/2/17 10:16,2.5,11,2.6,12,4.1,9
2016/2/17 10:17,2.4,11,2.5,12,4.9,9
2016/2/17 10:18,2.4,10,2.4,12,6.7,8
2016/2/17 10:19,2.5,10,2.5,12,7.1,9
2016/2/17 10:20,2.7,10,2.7,12,6,8
2016/2/17 10:21,2.9,10,2.9,10,4.4,11
2016/2/17 10:22,2.8,9,2.9,10,3.8,10
2016/2/17 10:23,2.8,9,2.8,10,5.4,9
2016/2/17 10:24,2.5,9,2.7,10,6.9,7
2016/2/17 10:25,2.5,9,2.6,10,5.2,8
2016/2/17 10:26,2.8,9,2.8,10,7.1,10
2016/2/17 10:27,3.1,9,3.1,9,9.1,10
2016/2/17 10:28,3.4,10,3.4,10,8.3,10
2016/2/17 10:29,3.5,10,3.5,10,7.1,10
2016/2/17 10:30,3.5,10,3.5,10,6.2,8
2016/2/17 10:31,3.7,10,3.7,10,8.7,10
2016/2/17 10:32,4.1,10,4.1,10,9.1,10
2016/2/17 10:33,4.2,10,4.2,10,6.8,12
2016/2/17 10:34,4.1,10,4.2,10,4.1,12
2016/2/17 10:35,4.3,11,4.3,10,5.7,12
2016/2/17 10:36,4.1,11,4.2,10,4.5,12
2016/2/17 10:37,3.9,11,4.1,10,3.5,11
2016/2/17 10:38,3.5,11,3.9,10,3.7,10
2016/2/17 10:39,3.5,11,3.5,10,7.7,10
2016/2/17 10:40,3.4,11,3.4,10,5.4,11
2016/2/17 10:41,3,11,3.4,10,3.5,10
2016/2/17 10:42,2.6,11,3,10,2.7,9
2016/2/17 10:43,2.4,11,2.6,10,3.7,11
2016/2/17 10:44,2.4,11,2.4,10,3.8,10
2016/2/17 10:45,2.4,11,2.4,11,5.7,9
2016/2/17 10:46,2.3,10,2.4,11,6,9
2016/2/17 10:47,2.3,10,2.4,11,4.8,8
2016/2/17 10:48,2.5,10,2.5,11,5.6,10
2016/2/17 10:49,2.4,10,2.5,11,6.4,9
2016/2/17 10:50,2.5,10,2.5,11,6.2,9
2016/2/17 10:51,2.7,10,2.7,11,6,10
2016/2/17 10:52,3.1,10,3.1,10,7.5,10
2016/2/17 10:53,3.3,10,3.3,10,6.8,10
2016/2/17 10:54,3.4,10,3.4,10,5.6,9
2016/2/17 10:55,3.5,10,3.5,10,9.7,10
2016/2/17 10:56,3.7,10,3.7,10,9.8,10
2016/2/17 10:57,3.8,10,3.8,10,5.7,9
2016/2/17 10:58,3.7,10,3.8,10,5.2,9
2016/2/17 10:59,3.8,10,3.8,10,8.7,10
2016/2/17 11:00,4.1,10,4.1,10,10.1,9
2016/2/17 11:01,4.1,10,4.1,10,8.1,10
2016/2/17 11:02,3.9,10,4.1,10,7.6,8
2016/2/17 11:03,3.9,10,4,10,10.5,10
2016/2/17 11:04,4.1,10,4.2,10,8.4,11
2016/2/17 11:05,4.1,10,4.2,10,7,9
2016/2/17 11:06,4.2,10,4.2,10,9.4,10
2016/2/17 11:07,4.3,10,4.3,10,8.7,10
2016/2/17 11:08,4.5,10,4.5,10,8.1,10
2016/2/17 11:09,4.7,10,4.7,10,10.3,10
2016/2/17 11:10,4.4,10,4.7,10,6.9,12
2016/2/17 11:11,4.2,10,4.4,10,3.2,10
2016/2/17 11:12,4,10,4.1,10,4.2,9
2016/2/17 11:13,3.7,10,4,10,4.3,10
2016/2/17 11:14,3.6,10,3.7,10,7,9
2016/2/17 11:15,3.6,10,3.7,10,8.1,10
2016/2/17 11:16,3.7,10,3.7,10,8.7,10
2016/2/17 11:17,3.6,10,3.7,10,7.8,11
2016/2/17 11:18,3.4,10,3.6,10,3.3,10
2016/2/17 11:19,3.1,10,3.4,10,4.7,9
2016/2/17 11:20,3.2,10,3.2,10,7.7,10
2016/2/17 11:21,3.4,10,3.4,10,6.4,10
2016/2/17 11:22,3.5,10,3.5,10,4.4,11
2016/2/17 11:23,3.5,10,3.6,10,3.7,11
2016/2/17 11:24,3.3,10,3.5,10,4.1,9
2016/2/17 11:25,3.3,10,3.4,10,7.1,10
2016/2/17 11:26,3.3,10,3.4,10,8.1,10
2016/2/17 11:27,3.2,10,3.3,10,7.2,9
2016/2/17 11:28,3.4,10,3.4,10,6.1,12
2016/2/17 11:29,3.4,10,3.4,10,7.2,9
2016/2/17 11:30,3.2,10,3.3,10,7.2,10
2016/2/17 11:31,3.2,10,3.2,10,6.7,10
2016/2/17 11:32,3.3,10,3.3,10,6.2,10
2016/2/17 11:33,3.3,10,3.3,10,5.1,8
2016/2/17 11:34,3.4,10,3.4,10,5.4,11
2016/2/17 11:35,3.3,10,3.4,10,3.9,11
2016/2/17 11:36,3,10,3.2,10,4.4,9
2016/2/17 11:37,2.9,11,3,10,6.2,10
2016/2/17 11:38,2.9,10,2.9,10,5.1,10
2016/2/17 11:39,2.9,10,2.9,10,5,9
2016/2/17 11:40,2.7,11,2.9,10,3.9,15
2016/2/17 11:41,2.6,11,2.7,10,3.6,13
2016/2/17 11:42,2.5,11,2.6,10,5.5,16
2016/2/17 11:43,2.5,11,2.5,10,3.1,6
2016/2/17 11:44,2.5,11,2.5,10,6.2,9
2016/2/17 11:45,2.5,11,2.5,10,5.4,10
2016/2/17 11:46,2.6,11,2.6,11,4.4,13
2016/2/17 11:47,2.4,11,2.5,11,3.7,13
2016/2/17 11:48,2.2,11,2.3,10,3,10
2016/2/17 11:49,2.2,11,2.2,10,3,6
2016/2/17 11:50,2.1,10,2.2,11,3.2,3
2016/2/17 11:51,2,9,2.1,11,3.2,16
2016/2/17 11:52,2,8,2,11,3.2,1